Regional Weather Roundup
Issued by NWS

Home | Current Version | Previous Version | Text Only | Print | Product List | Glossary On
Versions: 1 2 3 4 5 6 7 8 9 10 11 12 13 14 15 16 17 18 19 20 21 22 23 24 25 26 27 28 29 30 31 32 33 34 35 36 37 38 39 40 41 42 43 44 45 46 47 48 49 50
271
ASUS44 KJAN 171503
RWRMS

MISSISSIPPI HOURLY WEATHER ROUNDUP
NATIONAL WEATHER SERVICE JACKSON MS
1000 AM CDT FRI APR 17 2015

NOTE: "FAIR: INDICATES FEW OR NO CLOUDS BELOW 12,000 FEET WITH NO
SIGNIFICANT WEATHER AND/OR OBSTRUCTIONS TO VISIBILITY.

MSZ001>002-007>008-010>013-018>021-025>028-034>036-171600-
NORTHWEST MISSISSIPPI

CITY           SKY/WX    TMP DP  RH WIND       PRES   REMARKS
CLARKSDALE     PTSUNNY   68  68 100 CALM      30.07R
CLEVELAND      CLOUDY    68  68 100 E6        30.03S
GREENWOOD      CLOUDY    68  65  90 E9        30.03S
GREENVILLE     CLOUDY    70  67  90 NE10      30.02R
OLIVE BRANCH   LGT RAIN  64  64 100 E5        30.07R
OXFORD         CLOUDY    63  63 100 NE3       30.08S FOG
TUNICA         CLOUDY    66  64  94 S8        30.06F
$$

MSZ003>006-009-014>017-022>024-029>033-037>039-171600-
NORTHEAST MISSISSIPPI

CITY           SKY/WX    TMP DP  RH WIND       PRES   REMARKS
COLUMBUS AFB   CLOUDY    64  64 100 E8        30.05S
CORINTH        CLOUDY    63  61  94 E6        30.09R
GOLDN TRIANGLE CLOUDY    63  61  94 E9        30.05S FOG
STARKVILLE     CLOUDY    63  63 100 E7        30.04F
TUPELO         LGT RAIN  64  61  90 E7        30.06S
$$

MSZ040-058-171600-
CENTRAL MISSISSIPPI

CITY           SKY/WX    TMP DP  RH WIND       PRES   REMARKS
JACKSON INTL   PTSUNNY   71  65  81 E8        30.01F
JACKSON HAWKNS CLOUDY    70  66  87 E5        30.02S
MERIDIAN KEY   CLOUDY    66  64  93 SW5       30.05R
MERIDIAN NAS   CLOUDY    66  63  90 E3        30.05R
RAYMOND        CLOUDY    72  66  83 E6        30.01R
VICKSBURG      PTSUNNY   73  67  81 NE6       30.01R
$$

MSZ059>079-171600-
SOUTH MISSISSIPPI

CITY           SKY/WX    TMP DP  RH WIND       PRES   REMARKS
BROOKHAVEN     PTSUNNY  120 N/A N/A SE3       30.03S
HATTIESBURG    CLOUDY    72  68  87 E3        30.04R
MCCOMB         CLOUDY    72  68  87 SE7       30.02R
NATCHEZ        CLOUDY    72  68  88 SE10      30.01R
PINE BELT      CLOUDY    70  66  88 N7        30.04S
$$

MSZ080>082-171600-
COASTAL MISSISSIPPI

CITY           SKY/WX    TMP DP  RH WIND       PRES   REMARKS
BAY ST LOUIS   PTSUNNY   73  66  78 MISG      30.00S
BILOXI         CLOUDY    73  71  91 SE9       30.00R
PASCAGOULA     CLOUDY    74  69  85 SE9       30.00S
GULFPORT       CLOUDY    74  68  81 SE10      29.99S
$$



USA.gov is the U.S. government's official web portal to all federal, state and local government web resources and services.